Torna al catalogo

FENGYUN 1C DEB

AttivoSSO
NORAD 30393·DEBRIS·🇨🇳 China

Lanciato May 10, 1999 da Taiyuan Satellite Launch Center

Loading…

Prossimi Passaggi (prossime 24 ore)

TLE

AggiornatoSource: Space-Track

Epoca: Sep 13, 2026, 10:31 UTC

1 30393U 99025ADG 26256.43854747 -.00000081  00000-0 -24497-4 0  9997
2 30393  99.1269 318.6331 0070738 224.8897 147.5028 13.99071699  1660

Traccia FENGYUN 1C DEB in tempo reale con AllMySat

Download on the App Store